Year,Month,Day,Hour,Minute,Value (Times are PST for temperature in C)
2014,08,10,00,00,14.20
2014,08,10,00,01,14.20
2014,08,10,00,02,14.20
2014,08,10,00,03,14.20
2014,08,10,00,04,14.20
2014,08,10,00,05,14.20
2014,08,10,00,06,14.30
2014,08,10,00,07,14.30
2014,08,10,00,08,14.40
2014,08,10,00,09,14.40
2014,08,10,00,10,14.40
2014,08,10,00,11,14.50
2014,08,10,00,12,14.50
2014,08,10,00,13,14.50
2014,08,10,00,14,14.50
2014,08,10,00,15,14.60
2014,08,10,00,16,14.60
2014,08,10,00,17,14.60
2014,08,10,00,18,14.60
2014,08,10,00,19,14.60
2014,08,10,00,20,14.60
2014,08,10,00,21,14.60
2014,08,10,00,22,14.60
2014,08,10,00,23,14.60
2014,08,10,00,24,14.60
2014,08,10,00,25,14.60
2014,08,10,00,26,14.60
2014,08,10,00,27,14.60
2014,08,10,00,28,14.60
2014,08,10,00,29,14.60
2014,08,10,00,30,14.60
2014,08,10,00,31,14.60
2014,08,10,00,32,14.60
2014,08,10,00,33,14.60
2014,08,10,00,34,14.60
2014,08,10,00,35,14.60
2014,08,10,00,36,14.60
2014,08,10,00,37,14.60
2014,08,10,00,38,14.50
2014,08,10,00,39,14.50
2014,08,10,00,40,14.50
2014,08,10,00,41,14.50
2014,08,10,00,42,14.50
2014,08,10,00,43,14.40
2014,08,10,00,44,14.40
2014,08,10,00,45,14.40
2014,08,10,00,46,14.30
2014,08,10,00,47,14.30
2014,08,10,00,48,14.20
2014,08,10,00,49,14.20
2014,08,10,00,50,14.20
2014,08,10,00,51,14.20
2014,08,10,00,52,14.10
2014,08,10,00,53,14.10
2014,08,10,00,54,14.00
2014,08,10,00,55,14.00
2014,08,10,00,56,13.90
2014,08,10,00,57,13.90
2014,08,10,00,58,13.80
2014,08,10,00,59,13.80
2014,08,10,01,00,13.80
2014,08,10,01,01,13.70
2014,08,10,01,02,13.70
2014,08,10,01,03,13.70
2014,08,10,01,04,13.70
2014,08,10,01,05,13.70
2014,08,10,01,06,13.60
2014,08,10,01,07,13.60
2014,08,10,01,08,13.60
2014,08,10,01,09,13.50
2014,08,10,01,10,13.50
2014,08,10,01,11,13.50
2014,08,10,01,12,13.40
2014,08,10,01,13,13.40
2014,08,10,01,14,13.30
2014,08,10,01,15,13.30
2014,08,10,01,16,13.30
2014,08,10,01,17,13.20
2014,08,10,01,18,13.20
2014,08,10,01,19,13.10
2014,08,10,01,20,13.00
2014,08,10,01,21,13.00
2014,08,10,01,22,12.90
2014,08,10,01,23,12.90
2014,08,10,01,24,12.80
2014,08,10,01,25,12.80
2014,08,10,01,26,12.80
2014,08,10,01,27,12.80
2014,08,10,01,28,12.80
2014,08,10,01,29,12.80
2014,08,10,01,30,12.80
2014,08,10,01,31,12.70
2014,08,10,01,32,12.70
2014,08,10,01,33,12.70
2014,08,10,01,34,12.60
2014,08,10,01,35,12.60
2014,08,10,01,36,12.60
2014,08,10,01,37,12.60
2014,08,10,01,38,12.60
2014,08,10,01,39,12.50
2014,08,10,01,40,12.50
2014,08,10,01,41,12.50
2014,08,10,01,42,12.50
2014,08,10,01,43,12.50
2014,08,10,01,44,12.50
2014,08,10,01,45,12.40
2014,08,10,01,46,12.40
2014,08,10,01,47,12.40
2014,08,10,01,48,12.40
2014,08,10,01,49,12.40
2014,08,10,01,50,12.40
2014,08,10,01,51,12.40
2014,08,10,01,52,12.40
2014,08,10,01,53,12.40
2014,08,10,01,54,12.40
2014,08,10,01,55,12.40
2014,08,10,01,56,12.50
2014,08,10,01,57,12.50
2014,08,10,01,58,12.50
2014,08,10,01,59,12.50
2014,08,10,02,00,12.50
2014,08,10,02,01,12.50
2014,08,10,02,02,12.60
2014,08,10,02,03,12.60
2014,08,10,02,04,12.60
2014,08,10,02,05,12.60
2014,08,10,02,06,12.60
2014,08,10,02,07,12.60
2014,08,10,02,08,12.60
2014,08,10,02,09,12.60
2014,08,10,02,10,12.60
2014,08,10,02,11,12.60
2014,08,10,02,12,12.50
2014,08,10,02,13,12.50
2014,08,10,02,14,12.50
2014,08,10,02,15,12.50
2014,08,10,02,16,12.50
2014,08,10,02,17,12.50
2014,08,10,02,18,12.50
2014,08,10,02,19,12.50
2014,08,10,02,20,12.60
2014,08,10,02,21,12.60
2014,08,10,02,22,12.50
2014,08,10,02,23,12.50
2014,08,10,02,24,12.50
2014,08,10,02,25,12.40
2014,08,10,02,26,12.40
2014,08,10,02,27,12.30
2014,08,10,02,28,12.30
2014,08,10,02,29,12.20
2014,08,10,02,30,12.20
2014,08,10,02,31,12.10
2014,08,10,02,32,12.10
2014,08,10,02,33,12.10
2014,08,10,02,34,12.10
2014,08,10,02,35,12.10
2014,08,10,02,36,12.10
2014,08,10,02,37,12.10
2014,08,10,02,38,12.10
2014,08,10,02,39,12.10
2014,08,10,02,40,12.10
2014,08,10,02,41,12.10
2014,08,10,02,42,12.10
2014,08,10,02,43,12.20
2014,08,10,02,44,12.20
2014,08,10,02,45,12.20
2014,08,10,02,46,12.20
2014,08,10,02,47,12.20
2014,08,10,02,48,12.20
2014,08,10,02,49,12.30
2014,08,10,02,50,12.30
2014,08,10,02,51,12.30
2014,08,10,02,52,12.30
2014,08,10,02,53,12.30
2014,08,10,02,54,12.30
2014,08,10,02,55,12.30
2014,08,10,02,56,12.40
2014,08,10,02,57,12.40
2014,08,10,02,58,12.50
2014,08,10,02,59,12.50
2014,08,10,03,00,12.50
2014,08,10,03,01,12.60
2014,08,10,03,02,12.60
2014,08,10,03,03,12.60
2014,08,10,03,04,12.60
2014,08,10,03,05,12.70
2014,08,10,03,06,12.70
2014,08,10,03,07,12.70
2014,08,10,03,08,12.70
2014,08,10,03,09,12.70
2014,08,10,03,10,12.70
2014,08,10,03,11,12.70
2014,08,10,03,12,12.70
2014,08,10,03,13,12.70
2014,08,10,03,14,12.70
2014,08,10,03,15,12.70
2014,08,10,03,16,12.70
2014,08,10,03,17,12.70
2014,08,10,03,18,12.70
2014,08,10,03,19,12.70
2014,08,10,03,20,12.70
2014,08,10,03,21,12.70
2014,08,10,03,22,12.60
2014,08,10,03,23,12.60
2014,08,10,03,24,12.50
2014,08,10,03,25,12.50
2014,08,10,03,26,12.40
2014,08,10,03,27,12.40
2014,08,10,03,28,12.30
2014,08,10,03,29,12.30
2014,08,10,03,30,12.30
2014,08,10,03,31,12.30
2014,08,10,03,32,12.20
2014,08,10,03,33,12.20
2014,08,10,03,34,12.20
2014,08,10,03,35,12.20
2014,08,10,03,36,12.20
2014,08,10,03,37,12.30
2014,08,10,03,38,12.30
2014,08,10,03,39,12.30
2014,08,10,03,40,12.30
2014,08,10,03,41,12.40
2014,08,10,03,42,12.40
2014,08,10,03,43,12.40
2014,08,10,03,44,12.50
2014,08,10,03,45,12.50
2014,08,10,03,46,12.60
2014,08,10,03,47,12.60
2014,08,10,03,48,12.60
2014,08,10,03,49,12.60
2014,08,10,03,50,12.60
2014,08,10,03,51,12.70
2014,08,10,03,52,12.70
2014,08,10,03,53,12.70
2014,08,10,03,54,12.80
2014,08,10,03,55,12.80
2014,08,10,03,56,12.80
2014,08,10,03,57,12.80
2014,08,10,03,58,12.80
2014,08,10,03,59,12.80
2014,08,10,04,00,12.80
2014,08,10,04,01,12.70
2014,08,10,04,02,12.60
2014,08,10,04,03,12.60
2014,08,10,04,04,12.50
2014,08,10,04,05,12.40
2014,08,10,04,06,12.40
2014,08,10,04,07,12.30
2014,08,10,04,08,12.30
2014,08,10,04,09,12.30
2014,08,10,04,10,12.30
2014,08,10,04,11,12.20
2014,08,10,04,12,12.20
2014,08,10,04,13,12.20
2014,08,10,04,14,12.20
2014,08,10,04,15,12.20
2014,08,10,04,16,12.20
2014,08,10,04,17,12.20
2014,08,10,04,18,12.20
2014,08,10,04,19,12.30
2014,08,10,04,20,12.30
2014,08,10,04,21,12.30
2014,08,10,04,22,12.30
2014,08,10,04,23,12.30
2014,08,10,04,24,12.30
2014,08,10,04,25,12.30
2014,08,10,04,26,12.30
2014,08,10,04,27,12.30
2014,08,10,04,28,12.30
2014,08,10,04,29,12.30
2014,08,10,04,30,12.30
2014,08,10,04,31,12.30
2014,08,10,04,32,12.30
2014,08,10,04,33,12.30
2014,08,10,04,34,12.30
2014,08,10,04,35,12.30
2014,08,10,04,36,12.30
2014,08,10,04,37,12.30
2014,08,10,04,38,12.30
2014,08,10,04,39,12.20
2014,08,10,04,40,12.20
2014,08,10,04,41,12.20
2014,08,10,04,42,12.10
2014,08,10,04,43,12.10
2014,08,10,04,44,12.00
2014,08,10,04,45,12.00
2014,08,10,04,46,11.90
2014,08,10,04,47,11.90
2014,08,10,04,48,11.90
2014,08,10,04,49,11.80
2014,08,10,04,50,11.80
2014,08,10,04,51,11.80
2014,08,10,04,52,11.80
2014,08,10,04,53,11.80
2014,08,10,04,54,11.80
2014,08,10,04,55,11.80
2014,08,10,04,56,11.80
2014,08,10,04,57,11.80
2014,08,10,04,58,11.80
2014,08,10,04,59,11.80
2014,08,10,05,00,11.80
2014,08,10,05,01,11.80
2014,08,10,05,02,11.80
2014,08,10,05,03,11.80
2014,08,10,05,04,11.90
2014,08,10,05,05,11.90
2014,08,10,05,06,12.00
2014,08,10,05,07,12.00
2014,08,10,05,08,12.00
2014,08,10,05,09,12.10
2014,08,10,05,10,12.10
2014,08,10,05,11,12.00
2014,08,10,05,12,12.00
2014,08,10,05,13,11.90
2014,08,10,05,14,11.80
2014,08,10,05,15,11.70
2014,08,10,05,16,11.60
2014,08,10,05,17,11.60
2014,08,10,05,18,11.60
2014,08,10,05,19,11.60
2014,08,10,05,20,11.60
2014,08,10,05,21,11.60
2014,08,10,05,22,11.60
2014,08,10,05,23,11.60
2014,08,10,05,24,11.60
2014,08,10,05,25,11.60
2014,08,10,05,26,11.60
2014,08,10,05,27,11.60
2014,08,10,05,28,11.60
2014,08,10,05,29,11.60
2014,08,10,05,30,11.60
2014,08,10,05,31,11.60
2014,08,10,05,32,11.60
2014,08,10,05,33,11.60
2014,08,10,05,34,11.60
2014,08,10,05,35,11.60
2014,08,10,05,36,11.60
2014,08,10,05,37,11.70
2014,08,10,05,38,11.70
2014,08,10,05,39,11.70
2014,08,10,05,40,11.70
2014,08,10,05,41,11.70
2014,08,10,05,42,11.70
2014,08,10,05,43,11.70
2014,08,10,05,44,11.70
2014,08,10,05,45,11.70
2014,08,10,05,46,11.80
2014,08,10,05,47,11.80
2014,08,10,05,48,11.80
2014,08,10,05,49,11.80
2014,08,10,05,50,11.80
2014,08,10,05,51,11.80
2014,08,10,05,52,11.80
2014,08,10,05,53,11.70
2014,08,10,05,54,11.70
2014,08,10,05,55,11.70
2014,08,10,05,56,11.70
2014,08,10,05,57,11.70
2014,08,10,05,58,11.60
2014,08,10,05,59,11.60
2014,08,10,06,00,11.60
2014,08,10,06,01,11.40
2014,08,10,06,02,11.40
2014,08,10,06,03,11.40
2014,08,10,06,04,11.40
2014,08,10,06,05,11.40
2014,08,10,06,06,11.40
2014,08,10,06,07,11.40
2014,08,10,06,08,11.40
2014,08,10,06,09,11.30
2014,08,10,06,10,11.30
2014,08,10,06,11,11.40
2014,08,10,06,12,11.40
2014,08,10,06,13,11.40
2014,08,10,06,14,11.40
2014,08,10,06,15,11.40
2014,08,10,06,16,11.60
2014,08,10,06,17,11.60
2014,08,10,06,18,11.60
2014,08,10,06,19,11.70
2014,08,10,06,20,11.80
2014,08,10,06,21,11.80
2014,08,10,06,22,11.80
2014,08,10,06,23,11.90
2014,08,10,06,24,11.90
2014,08,10,06,25,11.90
2014,08,10,06,26,11.80
2014,08,10,06,27,11.70
2014,08,10,06,28,11.60
2014,08,10,06,29,11.60
2014,08,10,06,30,11.50
2014,08,10,06,31,11.40
2014,08,10,06,32,11.40
2014,08,10,06,33,11.40
2014,08,10,06,34,11.30
2014,08,10,06,35,11.30
2014,08,10,06,36,11.30
2014,08,10,06,37,11.30
2014,08,10,06,38,11.30
2014,08,10,06,39,11.30
2014,08,10,06,40,11.30
2014,08,10,06,41,11.30
2014,08,10,06,42,11.30
2014,08,10,06,43,11.30
2014,08,10,06,44,11.30
2014,08,10,06,45,11.30
2014,08,10,06,46,11.20
2014,08,10,06,47,11.20
2014,08,10,06,48,11.20
2014,08,10,06,49,11.10
2014,08,10,06,50,11.10
2014,08,10,06,51,11.10
2014,08,10,06,52,11.10
2014,08,10,06,53,11.10
2014,08,10,06,54,11.10
2014,08,10,06,55,11.10
2014,08,10,06,56,11.10
2014,08,10,06,57,11.10
2014,08,10,06,58,11.10
2014,08,10,06,59,11.10
2014,08,10,07,00,11.10
2014,08,10,07,01,11.10
2014,08,10,07,02,11.20
2014,08,10,07,03,11.20
2014,08,10,07,04,11.20
2014,08,10,07,05,11.20
2014,08,10,07,06,11.30
2014,08,10,07,07,11.30
2014,08,10,07,08,11.40
2014,08,10,07,09,11.40
2014,08,10,07,10,11.50
2014,08,10,07,11,11.60
2014,08,10,07,12,11.60
2014,08,10,07,13,11.70
2014,08,10,07,14,11.80
2014,08,10,07,15,11.90
2014,08,10,07,16,12.00
2014,08,10,07,17,12.10
2014,08,10,07,18,12.20
2014,08,10,07,19,12.30
2014,08,10,07,20,12.40
2014,08,10,07,21,12.50
2014,08,10,07,22,12.60
2014,08,10,07,23,12.70
2014,08,10,07,24,12.80
2014,08,10,07,25,13.00
2014,08,10,07,26,13.10
2014,08,10,07,27,13.10
2014,08,10,07,28,13.20
2014,08,10,07,29,13.30
2014,08,10,07,30,13.50
2014,08,10,07,31,13.60
2014,08,10,07,32,13.70
2014,08,10,07,33,13.80
2014,08,10,07,34,13.90
2014,08,10,07,35,14.00
2014,08,10,07,36,14.20
2014,08,10,07,37,14.30
2014,08,10,07,38,14.40
2014,08,10,07,39,14.60
2014,08,10,07,40,14.70
2014,08,10,07,41,14.80
2014,08,10,07,42,14.90
2014,08,10,07,43,15.00
2014,08,10,07,44,15.10
2014,08,10,07,45,15.20
2014,08,10,07,46,15.30
2014,08,10,07,47,15.40
2014,08,10,07,48,15.50
2014,08,10,07,49,15.60
2014,08,10,07,50,15.70
2014,08,10,07,51,15.80
2014,08,10,07,52,15.80
2014,08,10,07,53,15.90
2014,08,10,07,54,16.00
2014,08,10,07,55,16.10
2014,08,10,07,56,16.20
2014,08,10,07,57,16.30
2014,08,10,07,58,16.50
2014,08,10,07,59,16.70
2014,08,10,08,00,16.80
2014,08,10,08,01,16.90
2014,08,10,08,02,17.10
2014,08,10,08,03,17.30
2014,08,10,08,04,17.40
2014,08,10,08,05,17.60
2014,08,10,08,06,17.80
2014,08,10,08,07,17.90
2014,08,10,08,08,18.10
2014,08,10,08,09,18.20
2014,08,10,08,10,18.30
2014,08,10,08,11,18.40
2014,08,10,08,12,18.50
2014,08,10,08,13,18.60
2014,08,10,08,14,18.70
2014,08,10,08,15,18.80
2014,08,10,08,16,18.90
2014,08,10,08,17,19.00
2014,08,10,08,18,19.10
2014,08,10,08,19,19.20
2014,08,10,08,20,19.20
2014,08,10,08,21,19.30
2014,08,10,08,22,19.30
2014,08,10,08,23,19.30
2014,08,10,08,24,19.40
2014,08,10,08,25,19.40
2014,08,10,08,26,19.40
2014,08,10,08,27,19.40
2014,08,10,08,28,19.40
2014,08,10,08,29,19.40
2014,08,10,08,30,19.40
2014,08,10,08,31,19.40
2014,08,10,08,32,19.40
2014,08,10,08,33,19.40
2014,08,10,08,34,19.40
2014,08,10,08,35,19.40
2014,08,10,08,36,19.50
2014,08,10,08,37,19.50
2014,08,10,08,38,19.50
2014,08,10,08,39,19.50
2014,08,10,08,40,19.50
2014,08,10,08,41,19.40
2014,08,10,08,42,19.40
2014,08,10,08,43,19.40
2014,08,10,08,44,19.40
2014,08,10,08,45,19.40
2014,08,10,08,46,19.50
2014,08,10,08,47,19.50
2014,08,10,08,48,19.50
2014,08,10,08,49,19.60
2014,08,10,08,50,19.60
2014,08,10,08,51,19.50
2014,08,10,08,52,19.50
2014,08,10,08,53,19.40
2014,08,10,08,54,19.30
2014,08,10,08,55,19.30
2014,08,10,08,56,19.30
2014,08,10,08,57,19.30
2014,08,10,08,58,19.30
2014,08,10,08,59,19.30
2014,08,10,09,00,19.30
2014,08,10,09,01,19.20
2014,08,10,09,02,19.20
2014,08,10,09,03,19.20
2014,08,10,09,04,19.20
2014,08,10,09,05,19.20
2014,08,10,09,06,19.30
2014,08,10,09,07,19.30
2014,08,10,09,08,19.30
2014,08,10,09,09,19.40
2014,08,10,09,10,19.40
2014,08,10,09,11,19.40
2014,08,10,09,12,19.50
2014,08,10,09,13,19.50
2014,08,10,09,14,19.60
2014,08,10,09,15,19.60
2014,08,10,09,16,19.60
2014,08,10,09,17,19.70
2014,08,10,09,18,19.70
2014,08,10,09,19,19.70
2014,08,10,09,20,19.70
2014,08,10,09,21,19.80
2014,08,10,09,22,19.80
2014,08,10,09,23,19.90
2014,08,10,09,24,19.90
2014,08,10,09,25,19.90
2014,08,10,09,26,20.00
2014,08,10,09,27,20.10
2014,08,10,09,28,20.10
2014,08,10,09,29,20.10
2014,08,10,09,30,20.10
2014,08,10,09,31,20.10
2014,08,10,09,32,20.10
2014,08,10,09,33,20.20
2014,08,10,09,34,20.20
2014,08,10,09,35,20.20
2014,08,10,09,36,20.20
2014,08,10,09,37,20.20
2014,08,10,09,38,20.20
2014,08,10,09,39,20.20
2014,08,10,09,40,20.30
2014,08,10,09,41,20.30
2014,08,10,09,42,20.40
2014,08,10,09,43,20.40
2014,08,10,09,44,20.40
2014,08,10,09,45,20.40
2014,08,10,09,46,20.40
2014,08,10,09,47,20.30
2014,08,10,09,48,20.40
2014,08,10,09,49,20.40
2014,08,10,09,50,20.50
2014,08,10,09,51,20.50
2014,08,10,09,52,20.60
2014,08,10,09,53,20.70
2014,08,10,09,54,20.70
2014,08,10,09,55,20.80
2014,08,10,09,56,20.90
2014,08,10,09,57,20.90
2014,08,10,09,58,21.00
2014,08,10,09,59,21.10
2014,08,10,10,00,21.10
2014,08,10,10,01,21.10
2014,08,10,10,02,21.10
2014,08,10,10,03,21.10
2014,08,10,10,04,21.20
2014,08,10,10,05,21.10
2014,08,10,10,06,21.00
2014,08,10,10,07,21.00
2014,08,10,10,08,20.90
2014,08,10,10,09,20.90
2014,08,10,10,10,20.90
2014,08,10,10,11,21.00
2014,08,10,10,12,21.00
2014,08,10,10,13,21.10
2014,08,10,10,14,21.10
2014,08,10,10,15,21.20
2014,08,10,10,16,21.20
2014,08,10,10,17,21.30
2014,08,10,10,18,21.30
2014,08,10,10,19,21.30
2014,08,10,10,20,21.30
2014,08,10,10,21,21.20
2014,08,10,10,22,21.20
2014,08,10,10,23,21.20
2014,08,10,10,24,21.10
2014,08,10,10,25,21.10
2014,08,10,10,26,21.10
2014,08,10,10,27,21.10
2014,08,10,10,28,21.10
2014,08,10,10,29,21.20
2014,08,10,10,30,21.20
2014,08,10,10,31,21.20
2014,08,10,10,32,21.30
2014,08,10,10,33,21.30
2014,08,10,10,34,21.30
2014,08,10,10,35,21.20
2014,08,10,10,36,21.20
2014,08,10,10,37,21.20
2014,08,10,10,38,21.20
2014,08,10,10,39,21.20
2014,08,10,10,40,21.30
2014,08,10,10,41,21.30
2014,08,10,10,42,21.30
2014,08,10,10,43,21.40
2014,08,10,10,44,21.40
2014,08,10,10,45,21.50
2014,08,10,10,46,21.60
2014,08,10,10,47,21.70
2014,08,10,10,48,21.80
2014,08,10,10,49,21.80
2014,08,10,10,50,21.90
2014,08,10,10,51,22.00
2014,08,10,10,52,22.00
2014,08,10,10,53,22.00
2014,08,10,10,54,22.10
2014,08,10,10,55,22.20
2014,08,10,10,56,22.20
2014,08,10,10,57,22.30
2014,08,10,10,58,22.30
2014,08,10,10,59,22.30
2014,08,10,11,00,22.30
2014,08,10,11,01,22.30
2014,08,10,11,02,22.30
2014,08,10,11,03,22.30
2014,08,10,11,04,22.30
2014,08,10,11,05,22.40
2014,08,10,11,06,22.40
2014,08,10,11,07,22.40
2014,08,10,11,08,22.40
2014,08,10,11,09,22.40
2014,08,10,11,10,22.40
2014,08,10,11,11,22.40
2014,08,10,11,12,22.50
2014,08,10,11,13,22.40
2014,08,10,11,14,22.30
2014,08,10,11,15,22.30
2014,08,10,11,16,22.20
2014,08,10,11,17,22.20
2014,08,10,11,18,22.20
2014,08,10,11,19,22.10
2014,08,10,11,20,22.10
2014,08,10,11,21,22.00
2014,08,10,11,22,22.00
2014,08,10,11,23,22.00
2014,08,10,11,24,22.10
2014,08,10,11,25,22.20
2014,08,10,11,26,22.20
2014,08,10,11,27,22.30
2014,08,10,11,28,22.30
2014,08,10,11,29,22.30
2014,08,10,11,30,22.30
2014,08,10,11,31,22.40
2014,08,10,11,32,22.30
2014,08,10,11,33,22.30
2014,08,10,11,34,22.30
2014,08,10,11,35,22.20
2014,08,10,11,36,22.20
2014,08,10,11,37,22.20
2014,08,10,11,38,22.20
2014,08,10,11,39,22.20
2014,08,10,11,40,22.20
2014,08,10,11,41,22.30
2014,08,10,11,42,22.30
2014,08,10,11,43,22.50
2014,08,10,11,44,22.60
2014,08,10,11,45,22.70
2014,08,10,11,46,22.80
2014,08,10,11,47,23.00
2014,08,10,11,48,23.10
2014,08,10,11,49,23.20
2014,08,10,11,50,23.30
2014,08,10,11,51,23.30
2014,08,10,11,52,23.30
2014,08,10,11,53,23.40
2014,08,10,11,54,23.40
2014,08,10,11,55,23.30
2014,08,10,11,56,23.30
2014,08,10,11,57,23.30
2014,08,10,11,58,23.30
2014,08,10,11,59,23.20
2014,08,10,12,00,23.20
2014,08,10,12,01,23.10
2014,08,10,12,02,23.20
2014,08,10,12,03,23.20
2014,08,10,12,04,23.30
2014,08,10,12,05,23.40
2014,08,10,12,06,23.50
2014,08,10,12,07,23.60
2014,08,10,12,08,23.70
2014,08,10,12,09,23.70
2014,08,10,12,10,23.70
2014,08,10,12,11,23.70
2014,08,10,12,12,23.70
2014,08,10,12,13,23.60
2014,08,10,12,14,23.50
2014,08,10,12,15,23.40
2014,08,10,12,16,23.30
2014,08,10,12,17,23.30
2014,08,10,12,18,23.20
2014,08,10,12,19,23.10
2014,08,10,12,20,23.10
2014,08,10,12,21,23.10
2014,08,10,12,22,23.10
2014,08,10,12,23,23.10
2014,08,10,12,24,23.10
2014,08,10,12,25,23.00
2014,08,10,12,26,22.90
2014,08,10,12,27,22.90
2014,08,10,12,28,23.10
2014,08,10,12,29,23.10
2014,08,10,12,30,23.20
2014,08,10,12,31,23.30
2014,08,10,12,32,23.40
2014,08,10,12,33,23.50
2014,08,10,12,34,23.60
2014,08,10,12,35,23.60
2014,08,10,12,36,23.70
2014,08,10,12,37,23.80
2014,08,10,12,38,23.90
2014,08,10,12,39,24.00
2014,08,10,12,40,24.10
2014,08,10,12,41,24.00
2014,08,10,12,42,23.90
2014,08,10,12,43,23.90
2014,08,10,12,44,23.80
2014,08,10,12,45,23.70
2014,08,10,12,46,23.70
2014,08,10,12,47,23.80
2014,08,10,12,48,23.80
2014,08,10,12,49,23.80
2014,08,10,12,50,23.90
2014,08,10,12,51,23.90
2014,08,10,12,52,23.80
2014,08,10,12,53,23.80
2014,08,10,12,54,23.80
2014,08,10,12,55,23.80
2014,08,10,12,56,23.80
2014,08,10,12,57,23.90
2014,08,10,12,58,23.80
2014,08,10,12,59,23.80
2014,08,10,13,00,23.80
2014,08,10,13,01,23.90
2014,08,10,13,02,24.00
2014,08,10,13,03,24.10
2014,08,10,13,04,24.10
2014,08,10,13,05,24.10
2014,08,10,13,06,24.10
2014,08,10,13,07,24.10
2014,08,10,13,08,24.10
2014,08,10,13,09,24.10
2014,08,10,13,10,24.20
2014,08,10,13,11,24.20
2014,08,10,13,12,24.20
2014,08,10,13,13,24.10
2014,08,10,13,14,24.10
2014,08,10,13,15,24.10
2014,08,10,13,16,24.10
2014,08,10,13,17,24.10
2014,08,10,13,18,24.10
2014,08,10,13,19,24.10
2014,08,10,13,20,24.10
2014,08,10,13,21,24.20
2014,08,10,13,22,24.30
2014,08,10,13,23,24.40
2014,08,10,13,24,24.50
2014,08,10,13,25,24.50
2014,08,10,13,26,24.50
2014,08,10,13,27,24.50
2014,08,10,13,28,24.50
2014,08,10,13,29,24.50
2014,08,10,13,30,24.50
2014,08,10,13,31,24.50
2014,08,10,13,32,24.50
2014,08,10,13,33,24.50
2014,08,10,13,34,24.50
2014,08,10,13,35,24.50
2014,08,10,13,36,24.60
2014,08,10,13,37,24.70
2014,08,10,13,38,24.70
2014,08,10,13,39,24.70
2014,08,10,13,40,24.70
2014,08,10,13,41,24.70
2014,08,10,13,42,24.70
2014,08,10,13,43,24.70
2014,08,10,13,44,24.60
2014,08,10,13,45,24.60
2014,08,10,13,46,24.60
2014,08,10,13,47,24.60
2014,08,10,13,48,24.70
2014,08,10,13,49,24.70
2014,08,10,13,50,24.70
2014,08,10,13,51,24.70
2014,08,10,13,52,24.80
2014,08,10,13,53,24.90
2014,08,10,13,54,24.90
2014,08,10,13,55,25.00
2014,08,10,13,56,25.00
2014,08,10,13,57,25.00
2014,08,10,13,58,25.00
2014,08,10,13,59,25.10
2014,08,10,14,00,25.10
2014,08,10,14,01,25.10
2014,08,10,14,02,25.10
2014,08,10,14,03,25.00
2014,08,10,14,04,24.90
2014,08,10,14,05,24.80
2014,08,10,14,06,24.70
2014,08,10,14,07,24.60
2014,08,10,14,08,24.50
2014,08,10,14,09,24.40
2014,08,10,14,10,24.40
2014,08,10,14,11,24.30
2014,08,10,14,12,24.30
2014,08,10,14,13,24.30
2014,08,10,14,14,24.30
2014,08,10,14,15,24.20
2014,08,10,14,16,24.20
2014,08,10,14,17,24.20
2014,08,10,14,18,24.20
2014,08,10,14,19,24.20
2014,08,10,14,20,24.20
2014,08,10,14,21,24.30
2014,08,10,14,22,24.40
2014,08,10,14,23,24.40
2014,08,10,14,24,24.40
2014,08,10,14,25,24.40
2014,08,10,14,26,24.40
2014,08,10,14,27,24.40
2014,08,10,14,28,24.50
2014,08,10,14,29,24.60
2014,08,10,14,30,24.60
2014,08,10,14,31,24.70
2014,08,10,14,32,24.70
2014,08,10,14,33,24.70
2014,08,10,14,34,24.70
2014,08,10,14,35,24.60
2014,08,10,14,36,24.60
2014,08,10,14,37,24.60
2014,08,10,14,38,24.60
2014,08,10,14,39,24.60
2014,08,10,14,40,24.70
2014,08,10,14,41,24.70
2014,08,10,14,42,24.80
2014,08,10,14,43,24.80
2014,08,10,14,44,24.80
2014,08,10,14,45,24.80
2014,08,10,14,46,24.70
2014,08,10,14,47,24.60
2014,08,10,14,48,24.50
2014,08,10,14,49,24.50
2014,08,10,14,50,24.50
2014,08,10,14,51,24.50
2014,08,10,14,52,24.60
2014,08,10,14,53,24.60
2014,08,10,14,54,24.60
2014,08,10,14,55,24.60
2014,08,10,14,56,24.60
2014,08,10,14,57,24.60
2014,08,10,14,58,24.50
2014,08,10,14,59,24.50
2014,08,10,15,00,24.50
2014,08,10,15,01,24.40
2014,08,10,15,02,24.50
2014,08,10,15,03,24.50
2014,08,10,15,04,24.50
2014,08,10,15,05,24.50
2014,08,10,15,06,24.50
2014,08,10,15,07,24.60
2014,08,10,15,08,24.70
2014,08,10,15,09,24.70
2014,08,10,15,10,24.70
2014,08,10,15,11,24.70
2014,08,10,15,12,24.70
2014,08,10,15,13,24.60
2014,08,10,15,14,24.70
2014,08,10,15,15,24.70
2014,08,10,15,16,24.80
2014,08,10,15,17,24.90
2014,08,10,15,18,25.00
2014,08,10,15,19,25.20
2014,08,10,15,20,25.30
2014,08,10,15,21,25.40
2014,08,10,15,22,25.40
2014,08,10,15,23,25.50
2014,08,10,15,24,25.50
2014,08,10,15,25,25.50
2014,08,10,15,26,25.50
2014,08,10,15,27,25.50
2014,08,10,15,28,25.50
2014,08,10,15,29,25.50
2014,08,10,15,30,25.50
2014,08,10,15,31,25.50
2014,08,10,15,32,25.40
2014,08,10,15,33,25.40
2014,08,10,15,34,25.30
2014,08,10,15,35,25.30
2014,08,10,15,36,25.30
2014,08,10,15,37,25.40
2014,08,10,15,38,25.40
2014,08,10,15,39,25.50
2014,08,10,15,40,25.50
2014,08,10,15,41,25.50
2014,08,10,15,42,25.50
2014,08,10,15,43,25.50
2014,08,10,15,44,25.50
2014,08,10,15,45,25.50
2014,08,10,15,46,25.60
2014,08,10,15,47,25.60
2014,08,10,15,48,25.70
2014,08,10,15,49,25.60
2014,08,10,15,50,25.60
2014,08,10,15,51,25.50
2014,08,10,15,52,25.50
2014,08,10,15,53,25.50
2014,08,10,15,54,25.50
2014,08,10,15,55,25.60
2014,08,10,15,56,25.60
2014,08,10,15,57,25.50
2014,08,10,15,58,25.50
2014,08,10,15,59,25.40
2014,08,10,16,00,25.30
2014,08,10,16,01,25.20
2014,08,10,16,02,25.20
2014,08,10,16,03,25.20
2014,08,10,16,04,25.20
2014,08,10,16,05,25.20
2014,08,10,16,06,25.30
2014,08,10,16,07,25.30
2014,08,10,16,08,25.30
2014,08,10,16,09,25.30
2014,08,10,16,10,25.40
2014,08,10,16,11,25.40
2014,08,10,16,12,25.50
2014,08,10,16,13,25.60
2014,08,10,16,14,25.70
2014,08,10,16,15,25.80
2014,08,10,16,16,25.80
2014,08,10,16,17,25.80
2014,08,10,16,18,25.90
2014,08,10,16,19,25.90
2014,08,10,16,20,26.00
2014,08,10,16,21,26.00
2014,08,10,16,22,26.00
2014,08,10,16,23,26.00
2014,08,10,16,24,26.00
2014,08,10,16,25,26.00
2014,08,10,16,26,26.00
2014,08,10,16,27,25.90
2014,08,10,16,28,25.90
2014,08,10,16,29,25.90
2014,08,10,16,30,25.90
2014,08,10,16,31,25.90
2014,08,10,16,32,25.80
2014,08,10,16,33,25.80
2014,08,10,16,34,25.80
2014,08,10,16,35,25.80
2014,08,10,16,36,25.80
2014,08,10,16,37,25.90
2014,08,10,16,38,25.90
2014,08,10,16,39,26.00
2014,08,10,16,40,26.00
2014,08,10,16,41,26.10
2014,08,10,16,42,26.00
2014,08,10,16,43,25.90
2014,08,10,16,44,25.90
2014,08,10,16,45,25.80
2014,08,10,16,46,25.80
2014,08,10,16,47,25.80
2014,08,10,16,48,25.80
2014,08,10,16,49,25.90
2014,08,10,16,50,25.90
2014,08,10,16,51,25.90
2014,08,10,16,52,26.00
2014,08,10,16,53,26.10
2014,08,10,16,54,26.10
2014,08,10,16,55,26.00
2014,08,10,16,56,26.00
2014,08,10,16,57,26.00
2014,08,10,16,58,26.00
2014,08,10,16,59,26.00
2014,08,10,17,00,26.00
2014,08,10,17,01,25.90
2014,08,10,17,02,25.90
2014,08,10,17,03,25.80
2014,08,10,17,04,25.80
2014,08,10,17,05,25.80
2014,08,10,17,06,25.70
2014,08,10,17,07,25.70
2014,08,10,17,08,25.70
2014,08,10,17,09,25.70
2014,08,10,17,10,25.70
2014,08,10,17,11,25.60
2014,08,10,17,12,25.60
2014,08,10,17,13,25.60
2014,08,10,17,14,25.60
2014,08,10,17,15,25.70
2014,08,10,17,16,25.70
2014,08,10,17,17,25.70
2014,08,10,17,18,25.70
2014,08,10,17,19,25.70